Satellite: NOAA-11
Catalog number: 19531
Epoch time:      08275.87990022
Element set:     342
Inclination:      098.7970 deg
RA of node:       003.7047 deg
Eccentricity:    0.0012080
Arg of perigee:   121.8378 deg
Mean anomaly:     238.3992 deg
Mean motion:   14.14878471 rev/day
Decay rate:        9.4e-07 rev/day^2
Epoch rev:            3299
Checksum:              319

Satellite: NOAA-12
Catalog number: 21263
Epoch time:      08275.95855501
Element set:    0877
Inclination:      098.7725 deg
RA of node:       277.9268 deg
Eccentricity:    0.0012249
Arg of perigee:   171.3051 deg
Mean anomaly:     188.8342 deg
Mean motion:   14.25548051 rev/day
Decay rate:        3.1e-07 rev/day^2
Epoch rev:           90360
Checksum:              316

Satellite: MET-3/5
Catalog number: 21655
Epoch time:      08275.93004916
Element set:    0602
Inclination:      082.5573 deg
RA of node:       028.9554 deg
Eccentricity:    0.0014560
Arg of perigee:   104.7804 deg
Mean anomaly:     255.4932 deg
Mean motion:   13.17016501 rev/day
Decay rate:        5.1e-07 rev/day^2
Epoch rev:           82363
Checksum:              286

Satellite: MET-2/21
Catalog number: 22782
Epoch time:      08276.45151179
Element set:     264
Inclination:      082.5514 deg
RA of node:       026.4706 deg
Eccentricity:    0.0022386
Arg of perigee:   353.5463 deg
Mean anomaly:     006.5405 deg
Mean motion:   13.83632509 rev/day
Decay rate:        8.2e-07 rev/day^2
Epoch rev:           76196
Checksum:              304

Satellite: OKEAN-4
Catalog number: 23317
Epoch time:      08275.89272906
Element set:    0710
Inclination:      082.5395 deg
RA of node:       215.4930 deg
Eccentricity:    0.0023341
Arg of perigee:   132.1682 deg
Mean anomaly:     228.1524 deg
Mean motion:   14.82638441 rev/day
Decay rate:       2.18e-06 rev/day^2
Epoch rev:           75409
Checksum:              296

Satellite: NOAA-14
Catalog number: 23455
Epoch time:      08275.70802961
Element set:    0330
Inclination:      098.9384 deg
RA of node:       347.9633 deg
Eccentricity:    0.0009298
Arg of perigee:   197.7742 deg
Mean anomaly:     162.3115 deg
Mean motion:   14.13747424 rev/day
Decay rate:      -2.26e-06 rev/day^2
Epoch rev:           70940
Checksum:              323

Satellite: NOAA-15
Catalog number: 25338
Epoch time:      08276.03568114
Element set:     645
Inclination:      098.5641 deg
RA of node:       265.2278 deg
Eccentricity:    0.0011720
Arg of perigee:   090.1425 deg
Mean anomaly:     270.1095 deg
Mean motion:   14.24725637 rev/day
Decay rate:      -1.59e-06 rev/day^2
Epoch rev:           54001
Checksum:              291

Satellite: RESURS
Catalog number: 25394
Epoch time:      08276.74204131
Element set:      36
Inclination:      098.3763 deg
RA of node:       315.7434 deg
Eccentricity:    0.0000514
Arg of perigee:   257.1187 deg
Mean anomaly:     102.9935 deg
Mean motion:   14.24171610 rev/day
Decay rate:        4.0e-08 rev/day^2
Epoch rev:           53175
Checksum:              273

Satellite: FENGYUN1
Catalog number: 25730
Epoch time:      08275.95446316
Element set:    0633
Inclination:      098.7324 deg
RA of node:       248.1659 deg
Eccentricity:    0.0019508
Arg of perigee:   225.1605 deg
Mean anomaly:     134.7979 deg
Mean motion:   14.07795355 rev/day
Decay rate:       5.03e-06 rev/day^2
Epoch rev:           48398
Checksum:              337

Satellite: OKEAN-0
Catalog number: 25860
Epoch time:      08275.86386985
Element set:    0488
Inclination:      097.7608 deg
RA of node:       261.7478 deg
Eccentricity:    0.0000806
Arg of perigee:   039.8434 deg
Mean anomaly:     320.2832 deg
Mean motion:   14.73537706 rev/day
Decay rate:        2.5e-07 rev/day^2
Epoch rev:           49510
Checksum:              333

Satellite: NOAA-16
Catalog number: 26536
Epoch time:      08276.02775357
Element set:     119
Inclination:      099.1663 deg
RA of node:       267.5961 deg
Eccentricity:    0.0009748
Arg of perigee:   287.6877 deg
Mean anomaly:     072.3216 deg
Mean motion:   14.12499220 rev/day
Decay rate:       2.33e-06 rev/day^2
Epoch rev:           41385
Checksum:              336

Satellite: NOAA-17
Catalog number: 27453
Epoch time:      08275.71460550
Element set:    0116
Inclination:      098.5238 deg
RA of node:       337.1976 deg
Eccentricity:    0.0012407
Arg of perigee:   154.0626 deg
Mean anomaly:     206.1194 deg
Mean motion:   14.24006312 rev/day
Decay rate:       1.25e-06 rev/day^2
Epoch rev:           32596
Checksum:              285

Satellite: NOAA-18
Catalog number: 28654
Epoch time:      08276.04385519
Element set:     602
Inclination:      098.8751 deg
RA of node:       215.6920 deg
Eccentricity:    0.0014709
Arg of perigee:   015.4694 deg
Mean anomaly:     344.6971 deg
Mean motion:   14.11196725 rev/day
Decay rate:       2.31e-06 rev/day^2
Epoch rev:           17354
Checksum:              320

/EX
SB KEPS @ AMSAT  $ORB08276.M
Orbital Elements  08276.MISC

HR AMSAT ORBITAL ELEMENTS FOR MANNED AND MISCELLANEOUS SATELLITES
FROM WA5QGD FORT WORTH,TX October 2, 2008
Send Subscribe/unsubscribe to KEPS at 
http://www.amsat.org/mailman/listinfo/keps
BID: ORB08276.M
TO ALL RADIO AMATEURS BT

Satellite: HUBBLE
Catalog number: 20580
Epoch time:      08275.57325945
Element set:    0241
Inclination:      028.4702 deg
RA of node:       349.3232 deg
Eccentricity:    0.0003700
Arg of perigee:   075.8086 deg
Mean anomaly:     284.2915 deg
Mean motion:   15.00411546 rev/day
Decay rate:       2.93e-06 rev/day^2
Epoch rev:           81097
Checksum:              283

Satellite: PO-34
Catalog number: 25520
Epoch time:      08275.95565774
Element set:    0103
Inclination:      028.4597 deg
RA of node:       183.9558 deg
Eccentricity:    0.0005078
Arg of perigee:   009.4757 deg
Mean anomaly:     350.5924 deg
Mean motion:   15.17234552 rev/day
Decay rate:       3.74e-06 rev/day^2
Epoch rev:           54939
Checksum:              338

Satellite: ISS
Catalog number: 25544
Epoch time:      08276.34121725
Element set:     367
Inclination:      051.6426 deg
RA of node:       186.9111 deg
Eccentricity:    0.0006256
Arg of perigee:   170.8612 deg
Mean anomaly:     290.5125 deg
Mean motion:   15.72371737 rev/day
Decay rate:     1.2216e-04 rev/day^2
Epoch rev:           56539
Checksum:              293

Satellite: CO-58
Catalog number: 28895
Epoch time:      08276.67313571
Element set:     134
Inclination:      098.0830 deg
RA of node:       168.0657 deg
Eccentricity:    0.0019025
Arg of perigee:   075.4056 deg
Mean anomaly:     284.9267 deg
Mean motion:   14.59700312 rev/day
Decay rate:       1.10e-06 rev/day^2
Epoch rev:           15616
Checksum:              315

Satellite: FALCON
Catalog number: 30776
Epoch time:      08275.92279775
Element set:    0414
Inclination:      035.4342 deg
RA of node:       226.1343 deg
Eccentricity:    0.0001013
Arg of perigee:   256.7791 deg
Mean anomaly:     103.2821 deg
Mean motion:   15.03061376 rev/day
Decay rate:       2.55e-06 rev/day^2
Epoch rev:           08621
Checksum:              273

Satellite: MAST
Catalog number: 31126
Epoch time:      08275.19089212
Element set:    0428
Inclination:      098.0303 deg
RA of node:       335.3293 deg
Eccentricity:    0.0094703
Arg of perigee:   004.1012 deg
Mean anomaly:     356.0942 deg
Mean motion:   14.53447514 rev/day
Decay rate:        2.5e-07 rev/day^2
Epoch rev:           07741
Checksum:              266

Satellite: CAPE1
Catalog number: 31130
Epoch time:      08276.41938177
Element set:     419
Inclination:      098.0303 deg
RA of node:       335.2723 deg
Eccentricity:    0.0103052
Arg of perigee:   004.0905 deg
Mean anomaly:     356.1118 deg
Mean motion:   14.51994414 rev/day
Decay rate:       1.64e-06 rev/day^2
Epoch rev:            7728
Checksum:              274

Satellite: COMPASS
Catalog number: 32787
Epoch time:      08275.43014766
Element set:    0165
Inclination:      097.9785 deg
RA of node:       334.9597 deg
Eccentricity:    0.0016302
Arg of perigee:   149.1971 deg
Mean anomaly:     211.0211 deg
Mean motion:   14.81468036 rev/day
Decay rate:       2.95e-06 rev/day^2
Epoch rev:           02313
Checksum:              304

Satellite: AAUSAT2
Catalog number: 32788
Epoch time:      08275.89138636
Element set:    0172
Inclination:      097.9789 deg
RA of node:       335.4384 deg
Eccentricity:    0.0016259
Arg of perigee:   148.6308 deg
Mean anomaly:     211.5851 deg
Mean motion:   14.81579252 rev/day
Decay rate:       2.50e-06 rev/day^2
Epoch rev:           02320
Checksum:              328

Satellite: DO-64
Catalog number: 32789
Epoch time:      08275.90359771
Element set:    0192
Inclination:      097.9811 deg
RA of node:       335.4892 deg
Eccentricity:    0.0016355
Arg of perigee:   147.4264 deg
Mean anomaly:     212.7960 deg
Mean motion:   14.81483841 rev/day
Decay rate:       2.95e-06 rev/day^2
Epoch rev:           02320
Checksum:              333

Satellite: CO-66
Catalog number: 32791
Epoch time:      08275.37759082
Element set:    0159
Inclination:      097.9821 deg
RA of node:       334.9278 deg
Eccentricity:    0.0016684
Arg of perigee:   147.2655 deg
Mean anomaly:     212.9596 deg
Mean motion:   14.81319337 rev/day
Decay rate:        3.8e-07 rev/day^2
Epoch rev:           02309
Checksum:              349

Satellite: RS-30
Catalog number: 32953
Epoch time:      08276.78348605
Element set:     123
Inclination:      082.4990 deg
RA of node:       056.6670 deg
Eccentricity:    0.0019267
Arg of perigee:   023.2329 deg
Mean anomaly:     336.9616 deg
Mean motion:   12.42997780 rev/day
Decay rate:        1.0e-07 rev/day^2
Epoch rev:            1641
Checksum:              310

/EX






More information about the Keps mailing list